"Pseudo-MPEC" for CAXYCQ2

Created 2024 Oct 5 5:22:06 UT using Find_Orb

Click here for an explanation of pseudo-MPECs

 
 Astrometry: 
     CAXYCQ2*1C2024 10 02.23754600 33 34.463+22 28 03.00   ~A26M 20.98GVNEOCPG96
     CAXYCQ2 1C2024 10 02.24360500 33 35.708+22 27 25.56   ~A26M 21.58GVNEOCPG96
     CAXYCQ2 1C2024 10 02.24927600 33 36.994+22 26 51.14   ~A26M 21.44GVNEOCPG96
     CAXYCQ2 1C2024 10 02.25492100 33 38.174+22 26 16.33   ~A26M 21.44GVNEOCPG96
     CAXYCQ2  C2024 10 02.27259400 33 41.731+22 24 26.97   ~A27M 21.8 GVNEOCPH01
     CAXYCQ2  C2024 10 02.27617400 33 42.507+22 24 05.03   ~A27M 21.8 GVNEOCPH01
     CAXYCQ2  C2024 10 02.28582000 33 44.592+22 23 05.89   ~A27M 20.9 GVNEOCPH01
     CAXYCQ2  C2024 10 02.29319400 33 46.181+22 22 20.61   ~A27M 21.0 GVNEOCPH01
     CAXYCQ2 2C2024 10 02.97162 00 36 27.88 +21 12 03.9    ~A47M 20.8 LcNEOCP095
     CAXYCQ2 2C2024 10 02.97245 00 36 28.07 +21 11 58.9    ~A47M 21.1 LcNEOCP095
     CAXYCQ2 2C2024 10 02.97328 00 36 28.24 +21 11 54.0    ~A47M 21.1 LcNEOCP095
     CAXYCQ2 2C2024 10 02.97370 00 36 28.34 +21 11 51.3    ~A47M 21.1 LcNEOCP095
     CAXYCQ2 2C2024 10 02.97411 00 36 28.44 +21 11 48.7    ~A47M 21.2 LcNEOCP095
     CAXYCQ2 2C2024 10 02.97453 00 36 28.55 +21 11 45.7    ~A47M 21.5 LcNEOCP095
     CAXYCQ2 2C2024 10 02.97536 00 36 28.71 +21 11 40.4    ~A47M 21.1 LcNEOCP095
     CAXYCQ2 2C2024 10 02.97577 00 36 28.81 +21 11 37.7    ~A47M 20.9 LcNEOCP095
     CAXYCQ2 2C2024 10 02.97619 00 36 28.90 +21 11 35.4    ~A47M 20.6 LcNEOCP095
     CAXYCQ2 2C2024 10 02.97660 00 36 28.99 +21 11 32.7    ~A47M 20.8 LcNEOCP095
     CAXYCQ2 2C2024 10 02.97743 00 36 29.19 +21 11 27.8    ~A47M 20.7 LcNEOCP095
     CAXYCQ2 2C2024 10 02.97784 00 36 29.26 +21 11 25.2    ~A47M 21.0 LcNEOCP095
     CAXYCQ2 2C2024 10 02.97867 00 36 29.46 +21 11 19.6    ~A47M 20.9 LcNEOCP095
     CAXYCQ2 2C2024 10 02.97950 00 36 29.65 +21 11 14.5    ~A47M 20.8 LcNEOCP095
     CAXYCQ2 2C2024 10 02.97992 00 36 29.71 +21 11 11.9    ~A47M 20.5 LcNEOCP095
     CAXYCQ2 2C2024 10 02.98075 00 36 29.91 +21 11 07.0    ~A47M 21.1 LcNEOCP095
     CAXYCQ2 2C2024 10 02.98158 00 36 30.08 +21 11 01.4    ~A47M 20.6 LcNEOCP095
     CAXYCQ2 2C2024 10 02.98199 00 36 30.18 +21 10 58.9    ~A47M 21.0 LcNEOCP095
     CAXYCQ2 2C2024 10 02.98241 00 36 30.28 +21 10 56.1    ~A47M 20.6 LcNEOCP095
     CAXYCQ2 KC2024 10 03.18619600 37 22.02 +20 49 46.5    ~A357 22.0 GVNEOCPH21
     CAXYCQ2  C2024 10 03.18887400 37 23.886+20 49 32.82   ~A35M 21.5 GVNEOCPH01
     CAXYCQ2 KC2024 10 03.19197300 37 23.28 +20 49 10.9    ~A357 21.8 GVNEOCPH21
     CAXYCQ2  C2024 10 03.19240500 37 24.659+20 49 11.33   ~A35M 21.7 GVNEOCPH01
     CAXYCQ2  C2024 10 03.20314300 37 27.008+20 48 04.39   ~A35M 21.8 GVNEOCPH01
     CAXYCQ2  C2024 10 03.20927800 37 28.336+20 47 26.43   ~A35M 21.6 GVNEOCPH01
     CAXYCQ2 1C2024 10 03.27502000 37 42.737+20 40 37.52   ~A37M 21.38GVNEOCPG96
     CAXYCQ2 1C2024 10 03.28019400 37 43.820+20 40 04.73   ~A37M 21.10GVNEOCPG96
     CAXYCQ2 1C2024 10 03.28538200 37 44.929+20 39 31.79   ~A37M 22.17GVNEOCPG96

Station data:
(095) Crimea-Nauchnij  (N44.726555 E34.016000)  Ukraine.  Observers V.
   Rumyantsev, V. V. Rumyantsev. Measurers A. Novichonok, A. Zhornichenko.
   0.35-m f/5 reflector + CCD0.64-m reflector + CCD.
(G96) Mt. Lemmon Survey  (N32.442729 W110.788720)  US/Arizona.  Observer E.
   J. Christensen. 1.5-m reflector + 10K CCD.
(H01) Magdalena Ridge Observatory, Socorro  (N33.984833 W107.189333)  US/New
   Mexico.  Observers W. H. Ryan, E. V. Ryan. Measurer W. H. Ryan. 2.4-m
   f/8.9 reflector + CCD.
(H21) Astronomical Research Observatory, Westfield  (N39.483054 W87.968270)
   US/Illinois.  Observer R. Holmes. Measurers S. Foglia, L. Buzzi, T.
   Linder, R. Holmes. 0.76-m f/3.0 astrograph + CCD0.81-m f/4.0 astrograph +
   CCD0.61-m f/4.5 astrograph + CCD0.40-m f/5.32 astrograph + CCD.

Orbital elements:  CAXYCQ2
   Perihelion 2024 Oct 1.28471 +/- 0.266 TT =  6:49:59 (JD 2460584.78471)
Epoch 2024 Oct  3.0 TT = JDT 2460586.5   Earth MOID: 0.1269      AutoNEOCP
M   0.92510166 +/- 0.14             (J2000 ecliptic)
n   0.53932759 +/- 0.00163          Peri.  171.26327 +/- 0.25
a   1.49474676 +/- 0.00301          Node   197.62965 +/- 0.007
e   0.2477950 +/- 0.00121           Incl.   14.50804 +/- 0.053
P   1.827/667.485d         H 24.78  G  0.15   U  8.4
q 1.12435597 +/- 0.000452    Q 1.86513754 +/- 0.00557
From 36 observations 2024 Oct. 2-3 (25.1 hr); mean residual 0".21
Residuals in arcseconds: 
241002 G96  .56+  .65+    241002 095  .01+  .26+    241002 095  .11-  .04+    
241002 G96  .42-  .05+    241002 095  .25+  .10-    241002 095  .03+  .12+    
241002 G96  .36+  .15+    241002 095  .07-  .17-    241002 095  .13+  .03-    
241002 G96  .22-  .27-    241002 095  .07+  .28-    241003 H21  .03+  .26-    
241002 H01  .16-  .17-    241002 095  .03+  .06+    241003 H01  .02-  .37-    
241002 H01  .11-  .19-    241002 095  .02+  .05-    241003 H21  .14+  .22+    
241002 H01  .06-  .20-    241002 095  .26+  .28+    241003 H01  .00   .05+    
241002 H01  .08-  .21-    241002 095  .03-  .26+    241003 H01  .11+  .19-    
241002 095  .15-  .23-    241002 095  .21+  .11-    241003 H01  .04+  .00     
241002 095  .05-  .00     241002 095  .30+  .02+    241003 G96  .03+  .39+    
241002 095  .23-  .33+    241002 095  .15-  .07+    241003 G96  .27-  .07+    
241002 095  .12-  .28+    241002 095  .08+  .40+    241003 G96  .24-  .29-    

Ephemerides (geocentric):
Date (UTC) HH   RA             Dec           delta  r     elong  mag " sig PA
---- --------  ------------   ------------  ------ ------ -----  --- --------
2024 10 05 05  00 45 19.495   +17 14 11.57  .12744 1.1248 167.5 21.3 .936 154
2024 10 05 06  00 45 29.238   +17 09 39.86  .12743 1.1248 167.6 21.3 .966 154
2024 10 05 07  00 45 38.975   +17 05 07.98  .12741 1.1248 167.7 21.2 1.00 154
2024 10 05 08  00 45 48.708   +17 00 35.96  .12739 1.1248 167.8 21.2 1.03 154
2024 10 05 09  00 45 58.436   +16 56 03.78  .12738 1.1248 167.9 21.2 1.06 154
2024 10 05 10  00 46 08.158   +16 51 31.45  .12736 1.1249 168.0 21.2 1.09 154
2024 10 05 11  00 46 17.874   +16 46 58.97  .12734 1.1249 168.1 21.2 1.12 154
2024 10 05 12  00 46 27.586   +16 42 26.35  .12733 1.1249 168.2 21.2 1.16 154
2024 10 05 13  00 46 37.292   +16 37 53.59  .12731 1.1249 168.3 21.2 1.19 154
2024 10 05 14  00 46 46.993   +16 33 20.68  .12730 1.1249 168.4 21.2 1.22 154
2024 10 05 15  00 46 56.688   +16 28 47.64  .12729 1.1249 168.5 21.2 1.26 154
2024 10 05 16  00 47 06.378   +16 24 14.46  .12727 1.1249 168.6 21.2 1.29 154
2024 10 05 17  00 47 16.062   +16 19 41.14  .12726 1.1249 168.6 21.2 1.33 154
2024 10 05 18  00 47 25.741   +16 15 07.69  .12725 1.1249 168.7 21.2 1.37 154
2024 10 05 19  00 47 35.415   +16 10 34.12  .12723 1.1249 168.8 21.2 1.40 154
2024 10 05 20  00 47 45.083   +16 06 00.41  .12722 1.1250 168.9 21.2 1.44 154
2024 10 05 21  00 47 54.745   +16 01 26.58  .12721 1.1250 169.0 21.2 1.48 154
2024 10 05 22  00 48 04.402   +15 56 52.62  .12720 1.1250 169.1 21.2 1.52 154
2024 10 05 23  00 48 14.054   +15 52 18.54  .12719 1.1250 169.2 21.2 1.56 154
2024 10 06 00  00 48 23.700   +15 47 44.35  .12718 1.1250 169.3 21.2 1.60 154
2024 10 06 01  00 48 33.340   +15 43 10.03  .12717 1.1250 169.4 21.2 1.64 154
2024 10 06 02  00 48 42.974   +15 38 35.60  .12716 1.1250 169.5 21.2 1.68 154
2024 10 06 03  00 48 52.603   +15 34 01.06  .12715 1.1250 169.6 21.2 1.72 154
2024 10 06 04  00 49 02.226   +15 29 26.41  .12714 1.1250 169.7 21.2 1.76 153
2024 10 06 05  00 49 11.844   +15 24 51.65  .12713 1.1251 169.8 21.2 1.80 153
2024 10 06 06  00 49 21.456   +15 20 16.79  .12712 1.1251 169.8 21.2 1.84 153
2024 10 06 07  00 49 31.062   +15 15 41.82  .12711 1.1251 169.9 21.2 1.89 153
2024 10 06 08  00 49 40.662   +15 11 06.75  .12711 1.1251 170.0 21.2 1.93 153
2024 10 06 09  00 49 50.257   +15 06 31.58  .12710 1.1251 170.1 21.2 1.97 153
2024 10 06 10  00 49 59.846   +15 01 56.31  .12709 1.1251 170.2 21.2 2.02 153
2024 10 06 11  00 50 09.429   +14 57 20.95  .12709 1.1251 170.3 21.2 2.06 153
2024 10 06 12  00 50 19.006   +14 52 45.49  .12708 1.1251 170.4 21.1 2.11 153
2024 10 06 13  00 50 28.577   +14 48 09.95  .12707 1.1252 170.5 21.1 2.16 153
2024 10 06 14  00 50 38.142   +14 43 34.31  .12707 1.1252 170.6 21.1 2.20 153
2024 10 06 15  00 50 47.702   +14 38 58.60  .12706 1.1252 170.7 21.1 2.25 153
2024 10 06 16  00 50 57.256   +14 34 22.79  .12706 1.1252 170.8 21.1 2.30 153
2024 10 06 17  00 51 06.803   +14 29 46.91  .12706 1.1252 170.9 21.1 2.35 153
2024 10 06 18  00 51 16.345   +14 25 10.95  .12705 1.1252 171.0 21.1 2.39 153
2024 10 06 19  00 51 25.881   +14 20 34.91  .12705 1.1252 171.0 21.1 2.44 153
2024 10 06 20  00 51 35.411   +14 15 58.79  .12705 1.1252 171.1 21.1 2.49 153
2024 10 06 21  00 51 44.934   +14 11 22.61  .12704 1.1253 171.2 21.1 2.54 153
2024 10 06 22  00 51 54.452   +14 06 46.35  .12704 1.1253 171.3 21.1 2.59 153
2024 10 06 23  00 52 03.964   +14 02 10.02  .12704 1.1253 171.4 21.1 2.65 153
2024 10 07 00  00 52 13.469   +13 57 33.64  .12704 1.1253 171.5 21.1 2.70 153
2024 10 07 01  00 52 22.969   +13 52 57.18  .12704 1.1253 171.6 21.1 2.75 153
2024 10 07 02  00 52 32.462   +13 48 20.67  .12704 1.1253 171.7 21.1 2.80 153
2024 10 07 03  00 52 41.950   +13 43 44.10  .12704 1.1253 171.8 21.1 2.86 153
2024 10 07 04  00 52 51.431   +13 39 07.47  .12704 1.1254 171.9 21.1 2.91 153